[ hide orbit diagram ]
For accurate long-term ephemerides, please instead use our Horizons system.This orbit viewer was implemented using two-body methods, and hence should not be used for determining accurate long-term trajectories (over several years or decades) or planetary encounter circumstances.
Orbital Elements at Epoch 2459000.5 (2020-May-31.0) TDB
Reference: JPL 29 (heliocentric ecliptic J2000)
Element | Value | Uncertainty (1-sigma) | Units |
e | .03802734295755256 | 3.6738e-08 | |
a | 2.574167393372305 | 1.2909e-08 | au |
q | 2.476278647074388 | 9.7373e-08 | au |
i | 15.13574125050184 | 4.0247e-06 | deg |
node | 172.4347160781057 | 1.5133e-05 | deg |
peri | 23.14954059668835 | 5.6678e-05 | deg |
M | 283.3121254083828 | 5.5931e-05 | deg |
tp | 2459321.849630466040 (2021-Apr-17.34963047) | 0.00023467 | TDB |
period | 1508.528793943391 4.13 | 1.1348e-05 3.107e-08 | d yr |
n | .2386431080701727 | 1.7952e-09 | deg/d |
Q | 2.672056139670223 | 1.34e-08 | au |
|
| | Orbit Determination Parameters
Additional Information
|
[ hide covariance matrix ]
Orbital Elements at Epoch 2457262.5 (2015-Aug-28.0) TDB
Reference: JPL 29 (heliocentric ecliptic J2000)
Element | Value | Uncertainty (1-sigma) | Units |
e | .0384903332328373 | 3.6779e-08 | |
q | 2.474199514509068 | 9.7444e-08 | au |
tp | 2457820.891291109415 (2017-Mar-08.39129111) | 0.00023046 | TDB |
node | 172.4664067562163 | 1.5122e-05 | deg |
peri | 24.94012426252018 | 5.5996e-05 | deg |
i | 15.14232331660908 | 4.0266e-06 | deg |
|
| | Orbit Determination Parameters
Additional Information
|
Orbit Covariance (6×6)
|
|
e |
q |
tp |
node |
peri |
i |
e |
1.352708984370385E-15 |
-3.555670547157391E-15 |
1.266466700728705E-13 |
1.291761163262074E-14 |
3.235440206052487E-14 |
2.536545514793296E-15 |
q |
-3.555670547157391E-15 |
9.495366448338312E-15 |
-1.081187960766515E-13 |
-3.469798268473273E-14 |
-4.382310111795349E-14 |
-5.899781289945534E-15 |
tp |
1.266466700728705E-13 |
-1.081187960766515E-13 |
5.311175613885917E-8 |
-7.528066265876698E-12 |
1.244053488159719E-8 |
3.088744354061602E-11 |
node |
1.291761163262074E-14 |
-3.469798268473273E-14 |
-7.528066265876698E-12 |
2.286716248536128E-10 |
-2.220854900067021E-10 |
4.193837786711199E-12 |
peri |
3.235440206052487E-14 |
-4.382310111795349E-14 |
1.244053488159719E-8 |
-2.220854900067021E-10 |
3.135570877622486E-9 |
3.178937200721531E-12 |
i |
2.536545514793296E-15 |
-5.899781289945534E-15 |
3.088744354061602E-11 |
4.193837786711199E-12 |
3.178937200721531E-12 |
1.621382092857746E-11 |
|
Physical Parameter Table
Parameter |
Symbol |
Value |
Units |
Sigma |
Reference |
Notes |
absolute magnitude |
H |
14.9 |
|
n/a |
MPO365575 |
|
diameter |
diameter |
3.080 |
km |
0.385 |
urn:nasa:pds:neowise_diameters_albedos::2.0[mainbelt] (http://adsabs.harvard.edu/abs/2011ApJ...741...68M) |
|
geometric albedo |
albedo |
0.295 |
|
0.112 |
urn:nasa:pds:neowise_diameters_albedos::2.0[mainbelt] (http://adsabs.harvard.edu/abs/2011ApJ...741...68M) |
|
|
27341 Fabiomuzzi | Discovered 2000 Feb. 10 at the Osservatorio San Vittore. |
Fabio Muzzi (1962-2006), who graduated in astronomy from the University of Bologna, was an employee of the Italian National Institute of Social Security. As an amateur astronomer, he collaborated with the Osservatorio San Vittore measuring several positions of minor planets, principally near-earth objects. |
NOTE: some special characters may not display properly (any characters within {} are an attempt to place the proper accent above a character) |
Reference: 20060613/MPCPages.arc | Last Updated: 2008-05-22 |
|
|